Meath Environmental Platform

Observations for Trim Patrick St

Time AQI Temp °C Hum % Pres Pa CO μg/m³ H₂S μg/m³ NO μg/m³ NO₂ μg/m³ O₃ μg/m³ SO₂ μg/m³ PM1 μg/m³ PM2.5 μg/m³ PM10 μg/m³
Sunday 2 August 2026
22:29 2 15.6 82 38,460 0.2 11.62 1.47 46.79 25.76 0 4.57 8.61 9.47
22:28 2 15.6 81 38,460 0.2 12.37 1.54 45.01 14.42 0 5.43 10.01 11.01
22:27 2 15.6 81 38,460 0.2 10.68 1.55 52.43 19.21 0 4.57 8.62 9.49
22:26 2 15.6 81 38,460 0.19 11.51 1.47 42.16 25.45 0 6.29 10.03 11.04
22:25 2 15.6 81 38,460 0.19 11.64 1.52 47.83 12.13 0 4.57 8.63 9.49
22:24 2 15.6 81 38,460 0.2 12.37 1.47 51.37 7.67 0 4.57 7.93 8.73
22:23 2 15.6 81 38,460 0.19 10.7 1.47 51.38 9.5 0 2.86 6.54 7.19
22:22 2 15.6 81 38,460 0.19 10.7 1.28 43.59 14.98 0 4.57 7.24 7.97
22:21 2 15.6 81 38,460 0.19 11.49 1.37 39.69 27.46 0 5.43 8.65 9.51
22:20 2 15.6 81 38,460 0.19 10.18 1.44 47.82 7.92 0 5.43 9.35 10.29
22:19 2 15.6 81 38,460 0.19 9.82 1.48 34.88 23.16 0 5.43 7.95 8.75
22:18 2 15.6 81 38,460 0.2 10.89 1.42 51.35 5.84 0 4.57 10.06 11.06
22:16 2 15.6 81 38,460 0.17 8.75 1.41 42.16 14.21 0 4.57 8.66 9.53
22:15 2 15.6 81 38,460 0.18 7.71 1.39 35.21 21.71 0 4.57 8.66 9.53
22:13 2 15.6 81 38,460 0.17 10.18 1.57 38.98 18.71 0 4.57 8.67 9.54
22:12 2 15.6 81 38,460 0.18 12.48 1.53 47.46 17.06 0 4.57 8.68 9.54
22:09 2 15.6 80 38,460 0.17 15.42 1.69 62.27 12.15 0 5.43 9.38 10.32
22:07 2 15.6 80 38,460 0.17 14.25 1.83 69.53 9.92 0 4.57 9.41 10.35
22:06 2 15.7 80 38,460 0.18 13.31 1.53 49.82 10.17 0.25 6.29 10.12 11.13
22:02 2 15.7 80 38,460 0.18 13.99 1.38 49.08 25.95 1.37 2.86 6.64 7.31